Date String (YYYY-MM-DD hh:mm:ss) UTC,Instrument flags,absolute air pressure of the measurement (hPa),sample flow rate (lpm),inlet stack bypass flow (lpm),air temperature of the measurement (°C),ambient temperature measured by the external sensor (°C),aerosol sample conditioner tube jacket temperature (°C),OPC LED temperature (°C),internal box temperature (°C),relative humidity of the measurement (%),span deviation,mass concentration of particles derived from Lorenz-Mie calculation of OPC scattering (μg/m³),mass concentration of particles derived from Lorenz-Mie calculation of OPC scattering (μg/m³),mass concentration of particles derived from Lorenz-Mie calculation of OPC scattering (μg/m³)
DateTimeUTC,F1_M11,P_M11,Q1_M11,Q2_M11,T1_M11,T2_M11,T3_M11,T4_M11,T5_M11,U1_M11,ZSPAN_M11,X2_M11,X0_M11,X1_M11
2023-09-03 00:00:00,SystemResetWarning,0832.3,5.01,000.00,027.5,024.1,000.0,035.7,028.7,25.2,0000.0,0004.49,0010.72,0003.76
2023-09-03 00:01:00,SystemResetWarning,0832.2,5.01,000.00,027.4,024.1,000.0,035.6,028.7,25.0,0000.0,0004.40,0009.95,0003.72
2023-09-03 00:02:00,SystemResetWarning,0832.2,5.00,000.00,027.4,024.4,000.0,035.7,028.7,25.6,0000.0,0004.32,0010.60,0003.69
2023-09-03 00:03:00,SystemResetWarning,0832.2,5.00,000.00,027.4,024.8,000.0,035.7,028.9,25.6,0000.0,0004.27,0010.55,0003.68
2023-09-03 00:04:00,SystemResetWarning,0832.2,5.00,000.00,027.4,025.3,000.0,035.7,029.0,26.3,0000.0,0004.24,0010.30,0003.66
2023-09-03 00:05:00,SystemResetWarning,0832.3,5.00,000.00,027.5,025.7,000.0,035.7,029.2,24.8,0000.0,0004.24,0010.74,0003.64
2023-09-03 00:06:00,SystemResetWarning,0832.4,5.00,000.00,027.5,026.0,000.0,035.8,029.3,25.6,0000.0,0004.24,0010.70,0003.63
2023-09-03 00:07:00,SystemResetWarning,0832.4,5.00,000.00,027.6,026.4,000.0,035.8,029.4,25.4,0000.0,0004.21,0010.23,0003.62
2023-09-03 00:08:00,SystemResetWarning,0832.5,4.99,000.00,027.7,026.6,000.0,035.8,029.5,25.2,0000.0,0004.20,0010.23,0003.61
2023-09-03 00:09:00,SystemResetWarning,0832.4,4.99,000.00,027.7,025.6,000.0,035.8,029.1,24.8,0000.0,0004.20,0010.48,0003.62
2023-09-03 00:10:00,SystemResetWarning,0832.5,5.01,000.00,027.5,024.3,000.0,035.7,028.7,27.6,0000.0,0004.20,0011.31,0003.63
2023-09-03 00:11:00,SystemResetWarning,0832.5,5.00,000.00,027.5,024.2,000.0,035.7,028.7,28.3,0000.0,0004.23,0011.37,0003.65
2023-09-03 00:12:00,SystemResetWarning,0832.5,5.01,000.00,027.4,024.5,000.0,035.7,028.8,30.1,0000.0,0004.27,0011.37,0003.68
2023-09-03 00:13:00,SystemResetWarning,0832.5,5.00,000.00,027.4,024.9,000.0,035.7,028.9,31.0,0000.0,0004.32,0010.52,0003.70
2023-09-03 00:14:00,SystemResetWarning,0832.5,4.99,000.00,027.5,025.3,000.0,035.7,029.1,31.7,0000.0,0004.34,0010.28,0003.71
2023-09-03 00:15:00,SystemResetWarning,0832.4,5.00,000.00,027.5,025.8,000.0,035.7,029.2,31.7,0000.0,0004.33,0010.20,0003.72
2023-09-03 00:16:00,SystemResetWarning,0832.4,5.00,000.00,027.6,026.1,000.0,035.8,029.3,31.4,0000.0,0004.34,0009.56,0003.74
2023-09-03 00:17:00,SystemResetWarning,0832.4,5.01,000.00,027.7,026.4,000.0,035.8,029.4,31.5,0000.0,0004.39,0009.05,0003.76
2023-09-03 00:18:00,SystemResetWarning,0832.3,5.00,000.00,027.7,026.7,000.0,035.9,029.5,30.9,0000.0,0004.46,0009.44,0003.78
2023-09-03 00:19:00,SystemResetWarning,0832.3,4.98,000.00,027.7,025.9,000.0,035.8,029.3,31.3,0000.0,0004.46,0009.71,0003.77
2023-09-03 00:20:00,SystemResetWarning,0832.3,5.01,000.00,027.6,024.4,000.0,035.8,028.8,31.8,0000.0,0004.47,0010.20,0003.73
2023-09-03 00:21:00,SystemResetWarning,0832.3,5.01,000.00,027.5,024.1,000.0,035.7,028.8,32.0,0000.0,0004.47,0011.63,0003.68
2023-09-03 00:22:00,SystemResetWarning,0832.3,5.02,000.00,027.5,024.4,000.0,035.7,028.8,31.7,0000.0,0004.43,0012.61,0003.61
2023-09-03 00:23:00,SystemResetWarning,0832.3,4.99,000.00,027.4,024.8,000.0,035.7,028.9,31.6,0000.0,0004.37,0013.02,0003.54
2023-09-03 00:24:00,SystemResetWarning,0832.3,5.00,000.00,027.5,025.3,000.0,035.8,029.1,31.5,0000.0,0004.27,0013.58,0003.46
2023-09-03 00:25:00,SystemResetWarning,0832.3,5.00,000.00,027.5,025.7,000.0,035.8,029.2,31.2,0000.0,0004.16,0013.42,0003.39
2023-09-03 00:26:00,SystemResetWarning,0832.3,5.00,000.00,027.6,026.1,000.0,035.8,029.3,30.8,0000.0,0004.07,0013.33,0003.31
2023-09-03 00:27:00,SystemResetWarning,0832.3,5.00,000.00,027.7,026.4,000.0,035.9,029.5,30.5,0000.0,0003.99,0013.23,0003.23
2023-09-03 00:28:00,SystemResetWarning,0832.3,5.00,000.00,027.7,026.6,000.0,035.9,029.6,30.7,0000.0,0003.88,0012.92,0003.14
2023-09-03 00:29:00,SystemResetWarning,0832.3,4.99,000.00,027.8,026.1,000.0,035.9,029.4,30.9,0000.0,0003.68,0013.29,0002.95
2023-09-03 00:30:00,SystemResetWarning,0832.2,5.00,000.00,027.6,024.7,000.0,035.8,028.9,30.9,0000.0,0003.51,0012.95,0002.73
2023-09-03 00:31:00,SystemResetWarning,0832.2,5.01,000.00,027.5,024.2,000.0,035.8,028.8,30.6,0000.0,0003.38,0012.53,0002.58
2023-09-03 00:32:00,SystemResetWarning,0832.2,5.01,000.00,027.5,024.4,000.0,035.8,028.8,30.6,0000.0,0003.20,0010.85,0002.44
2023-09-03 00:33:00,SystemResetWarning,0832.2,4.99,000.00,027.5,024.8,000.0,035.8,028.9,31.2,0000.0,0003.08,0008.44,0002.33
2023-09-03 00:34:00,SystemResetWarning,0832.2,5.01,000.00,027.5,025.2,000.0,035.8,029.1,30.9,0000.0,0002.82,0007.62,0002.20
2023-09-03 00:35:00,SystemResetWarning,0832.2,5.00,000.00,027.5,025.6,000.0,035.8,029.2,30.9,0000.0,0002.62,0006.75,0002.04
2023-09-03 00:36:00,SystemResetWarning,0832.2,5.00,000.00,027.6,026.0,000.0,035.8,029.3,30.9,0000.0,0002.41,0005.99,0001.87
2023-09-03 00:37:00,SystemResetWarning,0832.2,5.00,000.00,027.7,026.4,000.0,035.9,029.4,30.9,0000.0,0002.20,0006.62,0001.69
2023-09-03 00:38:00,SystemResetWarning,0832.2,5.00,000.00,027.7,026.6,000.0,035.9,029.6,30.8,0000.0,0001.95,0006.22,0001.54
2023-09-03 00:39:00,SystemResetWarning,0832.2,4.99,000.00,027.8,026.2,000.0,035.9,029.4,31.0,0000.0,0001.75,0005.89,0001.42
2023-09-03 00:40:00,SystemResetWarning,0832.1,4.99,000.00,027.7,024.8,000.0,035.8,028.9,31.4,0000.0,0001.61,0004.58,0001.34
2023-09-03 00:41:00,SystemResetWarning,0832.1,5.01,000.00,027.6,024.1,000.0,035.8,028.7,31.9,0000.0,0001.48,0003.16,0001.25
2023-09-03 00:42:00,SystemResetWarning,0832.0,5.00,000.00,027.5,024.3,000.0,035.8,028.7,32.3,0000.0,0001.37,0003.04,0001.16
2023-09-03 00:43:00,SystemResetWarning,0832.1,4.99,000.00,027.5,024.6,000.0,035.8,028.9,32.3,0000.0,0001.29,0003.00,0001.08
2023-09-03 00:44:00,SystemResetWarning,0832.1,5.01,000.00,027.5,025.1,000.0,035.8,029.0,31.6,0000.0,0001.22,0002.92,0000.99
2023-09-03 00:45:00,SystemResetWarning,0832.2,5.01,000.00,027.5,025.5,000.0,035.8,029.2,32.3,0000.0,0001.17,0002.88,0000.95
2023-09-03 00:46:00,SystemResetWarning,0832.1,5.00,000.00,027.6,025.9,000.0,035.8,029.3,32.2,0000.0,0001.16,0002.93,0000.92
2023-09-03 00:47:00,SystemResetWarning,0832.1,5.00,000.00,027.7,026.3,000.0,035.9,029.4,31.8,0000.0,0001.21,0003.10,0000.93
2023-09-03 00:48:00,SystemResetWarning,0832.2,5.00,000.00,027.7,026.6,000.0,035.9,029.5,31.4,0000.0,0001.31,0003.09,0000.99
2023-09-03 00:49:00,SystemResetWarning,0832.1,4.99,000.00,027.8,026.3,000.0,035.9,029.5,31.2,0000.0,0001.42,0003.35,0001.06
2023-09-03 00:50:00,SystemResetWarning,0832.1,4.99,000.00,027.7,024.9,000.0,035.9,028.9,31.3,0000.0,0001.55,0004.13,0001.16
2023-09-03 00:51:00,SystemResetWarning,0832.1,5.00,000.00,027.5,024.1,000.0,035.8,028.7,31.8,0000.0,0001.71,0004.95,0001.27
2023-09-03 00:52:00,SystemResetWarning,0832.1,5.01,000.00,027.5,024.2,000.0,035.8,028.7,32.0,0000.0,0001.94,0005.50,0001.38
2023-09-03 00:53:00,SystemResetWarning,0832.0,5.01,000.00,027.4,024.5,000.0,035.8,028.8,32.1,0000.0,0002.15,0006.00,0001.49
2023-09-03 00:54:00,SystemResetWarning,0832.1,5.00,000.00,027.5,025.0,000.0,035.8,029.0,31.8,0000.0,0002.26,0006.51,0001.60
2023-09-03 00:55:00,SystemResetWarning,0832.1,5.00,000.00,027.5,025.4,000.0,035.8,029.1,32.0,0000.0,0002.36,0007.67,0001.71
2023-09-03 00:56:00,SystemResetWarning,0832.1,5.00,000.00,027.6,025.8,000.0,035.8,029.3,32.1,0000.0,0002.48,0007.84,0001.83
2023-09-03 00:57:00,SystemResetWarning,0832.1,5.00,000.00,027.6,026.2,000.0,035.9,029.4,32.0,0000.0,0002.58,0007.88,0001.92
2023-09-03 00:58:00,SystemResetWarning,0832.2,5.00,000.00,027.7,026.5,000.0,035.9,029.5,32.0,0000.0,0002.62,0007.84,0002.01
2023-09-03 00:59:00,SystemResetWarning,0832.2,5.00,000.00,027.8,026.4,000.0,035.9,029.5,31.9,0000.0,0002.68,0007.70,0002.07
